This is the latest recevied weather packets stored in our database for station/object SQ3MKP-13. If no packets are shown the sender has not sent any weather packets the latest 10 day(s).
| Time | Temp. | Humidity | Pressure | Rain* | Wind** | Luminosity | Snow |
|---|---|---|---|---|---|---|---|
| 1777789793 | 16.67° C | 52% | 1006.2 hPa | - | - | 278 W/m² | - |
| 1777789492 | 16.67° C | 51% | 1006.3 hPa | - | - | 176 W/m² | - |
| 1777789192 | 16.67° C | 51% | 1006.2 hPa | - | - | 96 W/m² | - |
| 1777788890 | 16.11° C | 52% | 1006.3 hPa | - | - | 94 W/m² | - |
| 1777788590 | 16.11° C | 52% | 1006.3 hPa | - | - | 94 W/m² | - |
| 1777788289 | 16.11° C | 52% | 1006.2 hPa | - | - | 124 W/m² | - |
| 1777787988 | 15.56° C | 51% | 1006.3 hPa | - | - | 226 W/m² | - |
| 1777787687 | 15.56° C | 53% | 1006.2 hPa | - | - | 219 W/m² | - |
| 1777787386 | 15° C | 52% | 1006.2 hPa | - | - | 213 W/m² | - |
| 1777787085 | 15° C | 55% | 1006.2 hPa | - | - | 194 W/m² | - |
| 1777786784 | 15° C | 55% | 1006.3 hPa | - | - | 182 W/m² | - |
| 1777786483 | 15° C | 56% | 1006.3 hPa | - | - | 167 W/m² | - |
| 1777786182 | 14.44° C | 57% | 1006.4 hPa | - | - | 159 W/m² | - |
| 1777785881 | 14.44° C | 58% | 1006.4 hPa | - | - | 149 W/m² | - |
| 1777785580 | 14.44° C | 59% | 1006.4 hPa | - | - | 134 W/m² | - |
| 1777785279 | 13.89° C | 59% | 1006.3 hPa | - | - | 116 W/m² | - |
| 1777784979 | 13.33° C | 59% | 1006.3 hPa | - | - | 108 W/m² | - |
| 1777784678 | 12.22° C | 63% | 1006.2 hPa | - | - | 97 W/m² | - |
| 1777784377 | 11.11° C | 67% | 1006.3 hPa | - | - | 85 W/m² | - |
| 1777784076 | 10.56° C | 69% | 1006.3 hPa | - | - | 74 W/m² | - |
| 1777783775 | 10.56° C | 70% | 1006.3 hPa | - | - | 65 W/m² | - |
| 1777783474 | 10.56° C | 71% | 1006.3 hPa | - | - | 55 W/m² | - |
| 1777783173 | 10° C | 71% | 1006.3 hPa | - | - | 50 W/m² | - |
| 1777782872 | 10° C | 72% | 1006.4 hPa | - | - | 50 W/m² | - |
| 1777782571 | 10° C | 72% | 1006.4 hPa | - | - | 46 W/m² | - |
* Rain since midnight (hover to see other rain measurements)
** Current wind speed in m/s (hover to see current wind gust speed)